Location: Newark
(15.4608°S, 41.1635°W)
Time: 17:20:38
(UTC+00:00)

Vanguard 3 - Pass Details

Date: 03 March 2021
Orbit: 508 x 3262 km, 33.3° (Epoch: 20 April)

Event Time Altitude Azimuth Distance (km) Brightness Sun altitude
Exits shadow 05:44:44 12° 144° (SE) 2,208 9.8 -42.8°
Drops below altitude 10° 05:45:13 10° 141° (SE) 2,386 10.1 -42.7°
Sets 05:48:43 0° 129° (SE) 3,717 11.3 -41.9°
